TITAN 3C TRANSTAGE DEB, 33509

Orbit data source: Space-Track

TITAN 3C TRANSTAGE DEB, 33509 is space debris in GEO originally from a launch on Thu, 26 Sep 1968 UTC launched from the Air Force Eastern Test Range (AFETR). Debris objects in space refer to the collection of defunct objects orbiting the Earth. Examples of debris include non-operational satellites, rocket bodies, and fragments generated from explosions, collisions, or faulty payload assembly.

Not visible in the next 10 days
Identifier
33509, 1968-081K
Orbit
GEO
Country
Flag of USUS
Related business
Manufacturer
Unknown
Mission
Spacecraft
Bus & Motor
Unknown
Mass
Unknown
Launch date (UTC)
1968-09-26 (57 years ago)
Launch vehicle
Unknown
Launch site
Air Force Eastern Test Range (AFETR)
Object type
Payload
Rocket body
Debris
Shape & HBR
Unknown shape, 1.1 m
Radar Cross Section
Large (>1 m²)

Expand to show TLE details & history
Last TLE update: 8 hours ago

TLE from 8 hours ago
0 TITAN 3C TRANSTAGE DEB
1 33509U 68081K   25291.91743904 -.00000079  00000-0  00000-0 0  9996
2 33509   1.3645  46.4166 0043819  11.7617 334.6169  1.02088731 77282
Epoch: 2025-10-18T22:01Z
TLE epoch observation values (Epoch: 2025-10-18T22:01:06.733Z)
Latitude
-0.324°
Longitude
34.64258°
Altitude
35,118.994 km
Speed
3.105 km/s
True Right ascension
02h 10m 14s
True Declination
0° 19' 25"
Sunlit
Object was in daylight at epoch
Visualization orbit readout
Latitude
Unknown
Longitude
Unknown
Altitude
Unknown
Speed
Unknown
Apparent Right ascension
Unknown
Apparent Declination
Unknown
Sunlit
N/A
Visualization observer readout
Local Sidereal Time
00:52:56
Azimuth
Unknown
Elevation
Unknown
Doppler factor
Unknown
Orbital elements
Apogee altitude
35,468.458 km
Perigee altitude
35,103.323 km
Semi-major axis
41,664.027 km
Eccentricity
0.00438
Inclination
1.3645°
RAAN
46.4166°
Arg. of periapsis
11.7617°
True anomaly
334.40058°
Mean anomaly
334.6169°
Eccentric anomaly
334.50885°
Mean motion
0.25521 °/min
Orbital period
1,410.59 mins
BSTAR
0
Loading maneuver chart data...
Computing Atmospheric mass density...

Documentation

Showing up to 5 results
|